| time (UTC) | temp F | wind direction | speed MPH | gust MPH | rain 1hr in | rain 24hr in | rain mn in | humidity % | barometer mb |
| 20260906160105 | 73 | 98 | 5.0 | 9.0 | 0.00 | 0.00 | 0.00 | 75 | 1021.8 |
| 20260906154602 | 73 | 46 | 5.0 | 8.0 | 0.00 | 0.00 | 0.00 | 75 | 1021.9 |
| 20260906153115 | 73 | 106 | 4.0 | 12.0 | 0.00 | 0.00 | 0.00 | 77 | 1021.8 |
| 20260906151608 | 72 | 82 | 5.0 | 8.0 | 0.00 | 0.00 | 0.00 | 78 | 1021.9 |
| 20260906150107 | 71 | 127 | 4.0 | 8.0 | 0.00 | 0.00 | 0.00 | 80 | 1021.7 |
| 20260906144621 | 71 | 51 | 4.0 | 10.0 | 0.00 | 0.00 | 0.00 | 81 | 1021.6 |
| 20260906143116 | 70 | 89 | 4.0 | 8.0 | 0.00 | 0.00 | 0.00 | 81 | 1021.6 |
| 20260906141606 | 69 | 86 | 2.0 | 6.0 | 0.00 | 0.00 | 0.00 | 84 | 1021.7 |
| 20260906140119 | 69 | 55 | 1.0 | 3.0 | 0.00 | 0.00 | 0.00 | 84 | 1021.7 |
| 20260906134618 | 66 | 346 | 2.0 | 4.0 | 0.00 | 0.00 | 0.00 | 89 | 1021.8 |
| 20260906133119 | 65 | 27 | 2.0 | 4.0 | 0.00 | 0.00 | 0.00 | 91 | 1021.6 |
| 20260906131603 | 63 | 20 | 2.0 | 5.0 | 0.00 | 0.00 | 0.00 | 91 | 1021.6 |
| 20260906130113 | 63 | 39 | 3.0 | 5.0 | 0.00 | 0.00 | 0.00 | 92 | 1021.4 |
| 20260906124612 | 61 | 37 | 2.0 | 3.0 | 0.00 | 0.00 | 0.00 | 93 | 1021.3 |
| 20260906123104 | 61 | 1 | 2.0 | 3.0 | 0.00 | 0.00 | 0.00 | 93 | 1021.2 |
| 20260906121618 | 60 | 349 | 3.0 | 4.0 | 0.00 | 0.00 | 0.00 | 94 | 1020.9 |
| 20260906120104 | 59 | 1 | 4.0 | 5.0 | 0.00 | 0.00 | 0.00 | 94 | 1020.9 |
| 20260906114619 | 59 | 328 | 2.0 | 3.0 | 0.00 | 0.00 | 0.00 | 94 | 1020.8 |
| 20260906113114 | 59 | 339 | 2.0 | 2.0 | 0.00 | 0.00 | 0.00 | 93 | 1020.3 |
| 20260906111603 | 59 | 354 | 1.0 | 3.0 | 0.00 | 0.00 | 0.00 | 93 | 1020.2 |
| 20260906110106 | 59 | 358 | 3.0 | 4.0 | 0.00 | 0.00 | 0.00 | 93 | 1019.9 |
| 20260906104605 | 59 | 345 | 3.0 | 4.0 | 0.00 | 0.00 | 0.00 | 93 | 1020.0 |
| 20260906103114 | 59 | 328 | 2.0 | 2.0 | 0.00 | 0.00 | 0.00 | 93 | 1020.1 |
| 20260906101605 | 59 | 353 | 3.0 | 4.0 | 0.00 | 0.00 | 0.00 | 92 | 1020.1 |
| 20260906100101 | 59 | 321 | 2.0 | 3.0 | 0.00 | 0.00 | 0.00 | 92 | 1020.2 |
| 20260906094605 | 59 | 307 | 2.0 | 3.0 | 0.00 | 0.00 | 0.00 | 91 | 1020.0 |
| 20260906093108 | 60 | 344 | 3.0 | 3.0 | 0.00 | 0.00 | 0.00 | 92 | 1019.8 |
| 20260906091614 | 60 | 1 | 3.0 | 5.0 | 0.00 | 0.00 | 0.00 | 91 | 1019.9 |
| 20260906090111 | 60 | 334 | 3.0 | 4.0 | 0.00 | 0.00 | 0.00 | 91 | 1019.7 |
| 20260906084607 | 60 | 333 | 3.0 | 4.0 | 0.00 | 0.00 | 0.00 | 91 | 1019.9 |
| 20260906083107 | 60 | 320 | 2.0 | 3.0 | 0.00 | 0.00 | 0.00 | 90 | 1019.8 |
| 20260906081606 | 60 | 336 | 3.0 | 5.0 | 0.00 | 0.00 | 0.00 | 90 | 1019.7 |
| 20260906080111 | 60 | 6 | 4.0 | 5.0 | 0.00 | 0.00 | 0.00 | 90 | 1019.6 |
| 20260906074602 | 61 | 345 | 4.0 | 5.0 | 0.00 | 0.00 | 0.00 | 89 | 1019.8 |
| 20260906073105 | 61 | 335 | 3.0 | 4.0 | 0.00 | 0.00 | 0.00 | 89 | 1019.9 |
| 20260906071616 | 61 | 328 | 3.0 | 4.0 | 0.00 | 0.00 | 0.00 | 90 | 1019.9 |
| 20260906070106 | 60 | 311 | 2.0 | 3.0 | 0.00 | 0.00 | 0.00 | 91 | 1019.8 |
| 20260906064606 | 60 | 343 | 1.0 | 2.0 | 0.00 | 0.00 | 0.00 | 92 | 1019.8 |
| 20260906063105 | 61 | 343 | 2.0 | 2.0 | 0.00 | 0.00 | 0.00 | 92 | 1019.6 |
| 20260906061606 | 61 | 322 | 1.0 | 1.0 | 0.00 | 0.00 | 0.00 | 93 | 1019.7 |
| 20260906060155 | 61 | 322 | 0.0 | 1.0 | 0.00 | 0.00 | 0.00 | 93 | 1019.5 |
| 20260906054616 | 61 | 322 | 1.0 | 2.0 | 0.00 | 0.00 | 0.00 | 93 | 1019.6 |
| 20260906053105 | 61 | 322 | 1.0 | 2.0 | 0.00 | 0.00 | 0.00 | 93 | 1019.4 |
| 20260906051606 | 61 | 351 | 1.0 | 2.0 | 0.00 | 0.00 | 0.00 | 91 | 1019.2 |
| 20260906050116 | 63 | 352 | 2.0 | 2.0 | 0.00 | 0.00 | 0.00 | 90 | 1019.0 |
| 20260906044606 | 63 | 352 | 1.0 | 4.0 | 0.00 | 0.00 | 0.00 | 90 | 1019.1 |
| 20260906043110 | 64 | 18 | 2.0 | 4.0 | 0.00 | 0.00 | 0.00 | 90 | 1019.0 |
| 20260906041611 | 62 | 6 | 1.0 | 2.0 | 0.00 | 0.00 | 0.00 | 92 | 1018.9 |
| 20260906040109 | 62 | 330 | 0.0 | 2.0 | 0.00 | 0.00 | 0.00 | 91 | 1019.0 |
| 20260906034608 | 63 | 346 | 1.0 | 2.0 | 0.00 | 0.00 | 0.00 | 91 | 1019.0 |
| 20260906033111 | 63 | 346 | 1.0 | 1.0 | 0.00 | 0.00 | 0.00 | 89 | 1018.8 |
| 20260906031630 | 65 | 346 | 1.0 | 2.0 | 0.00 | 0.00 | 0.00 | 86 | 1018.7 |
| 20260906030109 | 66 | 55 | 2.0 | 5.0 | 0.00 | 0.00 | 0.00 | 82 | 1018.6 |
| 20260906024607 | 66 | 4 | 3.0 | 6.0 | 0.00 | 0.00 | 0.00 | 84 | 1018.6 |
| 20260906023113 | 66 | 41 | 1.0 | 2.0 | 0.00 | 0.00 | 0.00 | 87 | 1018.5 |
| 20260906021612 | 66 | 359 | 1.0 | 3.0 | 0.00 | 0.00 | 0.00 | 86 | 1018.5 |
| 20260906020106 | 67 | 1 | 1.0 | 3.0 | 0.00 | 0.00 | 0.00 | 85 | 1018.5 |
| 20260906014609 | 67 | 32 | 2.0 | 5.0 | 0.00 | 0.00 | 0.00 | 84 | 1018.4 |
| 20260906013100 | 68 | 42 | 2.0 | 6.0 | 0.00 | 0.00 | 0.00 | 83 | 1018.4 |
| 20260906011615 | 68 | 47 | 3.0 | 5.0 | 0.00 | 0.00 | 0.00 | 83 | 1018.5 |
| 20260906010114 | 69 | 350 | 3.0 | 5.0 | 0.00 | 0.00 | 0.00 | 82 | 1018.3 |
| 20260906004608 | 69 | 350 | 1.0 | 3.0 | 0.00 | 0.00 | 0.00 | 82 | 1018.2 |
| 20260906003101 | 70 | 5 | 3.0 | 4.0 | 0.00 | 0.00 | 0.00 | 79 | 1018.1 |
| 20260906001611 | 71 | 4 | 3.0 | 5.0 | 0.00 | 0.00 | 0.00 | 78 | 1018.2 |
| 20260906000110 | 72 | 338 | 3.0 | 5.0 | 0.00 | 0.00 | 0.00 | 77 | 1018.3 |
| 20260905234602 | 73 | 349 | 4.0 | 7.0 | 0.00 | 0.00 | 0.00 | 75 | 1018.3 |
| 20260905233106 | 74 | 2 | 4.0 | 7.0 | 0.00 | 0.00 | 0.00 | 74 | 1018.5 |
| 20260905231619 | 74 | 359 | 6.0 | 11.0 | 0.00 | 0.00 | 0.00 | 73 | 1018.7 |
| 20260905230113 | 75 | 3 | 5.0 | 10.0 | 0.00 | 0.00 | 0.00 | 74 | 1018.7 |
| 20260905224609 | 75 | 20 | 5.0 | 11.0 | 0.00 | 0.00 | 0.00 | 75 | 1018.3 |
| 20260905223106 | 75 | 15 | 8.0 | 12.0 | 0.00 | 0.00 | 0.00 | 75 | 1017.9 |
| 20260905221631 | 74 | 72 | 4.0 | 8.0 | 0.00 | 0.00 | 0.00 | 77 | 1017.9 |
| 20260905220103 | 74 | 51 | 5.0 | 9.0 | 0.00 | 0.00 | 0.00 | 79 | 1018.0 |
| 20260905214609 | 74 | 21 | 4.0 | 9.0 | 0.00 | 0.00 | 0.00 | 79 | 1017.9 |
| 20260905213106 | 73 | 28 | 4.0 | 6.0 | 0.00 | 0.00 | 0.00 | 81 | 1017.9 |
| 20260905211605 | 73 | 1 | 3.0 | 6.0 | 0.00 | 0.00 | 0.00 | 82 | 1018.1 |
| 20260905210111 | 73 | 321 | 2.0 | 4.0 | 0.00 | 0.00 | 0.00 | 82 | 1018.1 |
| 20260905204612 | 74 | 299 | 2.0 | 4.0 | 0.00 | 0.00 | 0.00 | 81 | 1018.1 |
| 20260905203104 | 74 | 340 | 5.0 | 8.0 | 0.00 | 0.00 | 0.00 | 80 | 1018.1 |
| 20260905201607 | 74 | 21 | 3.0 | 9.0 | 0.00 | 0.00 | 0.00 | 82 | 1018.1 |
| 20260905200131 | 73 | 295 | 7.0 | 11.0 | 0.00 | 0.00 | 0.00 | 84 | 1018.1 |
| 20260905194607 | 73 | 23 | 8.0 | 13.0 | 0.00 | 0.00 | 0.00 | 82 | 1018.1 |
| 20260905193104 | 73 | 6 | 7.0 | 12.0 | 0.00 | 0.00 | 0.00 | 82 | 1018.3 |
| 20260905191603 | 73 | 358 | 10.0 | 12.0 | 0.00 | 0.00 | 0.00 | 82 | 1018.2 |
| 20260905190104 | 73 | 339 | 9.0 | 14.0 | 0.00 | 0.00 | 0.00 | 82 | 1018.1 |
| 20260905184612 | 73 | 336 | 9.0 | 13.0 | 0.00 | 0.00 | 0.00 | 84 | 1018.2 |
| 20260905183107 | 73 | 337 | 8.0 | 12.0 | 0.00 | 0.00 | 0.00 | 84 | 1018.3 |
| 20260905181603 | 72 | 354 | 8.0 | 12.0 | 0.00 | 0.00 | 0.00 | 84 | 1018.2 |
| 20260905180114 | 72 | 347 | 4.0 | 10.0 | 0.00 | 0.00 | 0.00 | 85 | 1018.2 |
| 20260905174602 | 72 | 2 | 8.0 | 12.0 | 0.00 | 0.00 | 0.00 | 85 | 1018.1 |
| 20260905173132 | 72 | 1 | 6.0 | 10.0 | 0.00 | 0.00 | 0.00 | 85 | 1017.9 |
| 20260905171603 | 71 | 16 | 10.0 | 13.0 | 0.00 | 0.00 | 0.00 | 86 | 1018.1 |
| 20260905170119 | 72 | 12 | 4.0 | 10.0 | 0.00 | 0.00 | 0.00 | 85 | 1018.3 |
| 20260905164625 | 71 | 18 | 6.0 | 11.0 | 0.00 | 0.00 | 0.00 | 86 | 1018.6 |
| 20260905163104 | 71 | 17 | 5.0 | 10.0 | 0.00 | 0.00 | 0.00 | 87 | 1018.5 |
| 20260905161603 | 71 | 13 | 8.0 | 12.0 | 0.00 | 0.00 | 0.00 | 88 | 1018.4 |